Location: Caltech
(34.1382°N, 118.1253°W)
Time: 15:07:04
(UTC-08:00)

AO-7 - Visible Passes

Search period start: 14 February 2016 00:00
Search period end: 24 February 2016 00:00
Orbit: 1440 x 1458 km, 101.6° (Epoch: 13 February)

Date Brightness Start Highest point End Pass type
(mag) Time Alt. Az. Time Alt. Az. Time Alt. Az.
14 Feb ? 02:58:13 10° NE 03:05:45 37° E 03:08:21 31° SE visible
14 Feb ? 04:50:49 10° N 04:58:28 43° WNW 05:03:17 23° WSW visible
15 Feb ? 02:02:00 10° ENE 02:05:10 12° E 02:07:30 11° ESE visible
15 Feb ? 03:50:31 10° NNE 03:58:53 83° ESE 04:02:26 40° S visible
15 Feb ? 05:45:10 10° NNW 05:50:39 20° NW 05:56:08 10° W visible
16 Feb ? 02:51:27 10° NE 02:58:45 33° E 03:01:35 27° SE visible
16 Feb ? 04:43:45 10° N 04:51:35 48° WNW 04:56:31 23° SW visible
17 Feb ? 01:56:42 10° E 01:58:05 10° E 01:59:29 10° E visible
17 Feb ? 03:43:36 10° NNE 03:51:56 75° ESE 03:55:40 37° S visible
17 Feb ? 05:37:57 10° NNW 05:43:49 22° WNW 05:49:43 10° WSW visible
18 Feb ? 02:44:42 10° NE 02:51:45 30° E 02:54:50 24° SE visible
18 Feb ? 04:36:44 10° N 04:44:41 52° WNW 04:49:46 24° SW visible
19 Feb ? 03:36:41 10° NNE 03:44:58 68° ESE 03:48:56 34° S visible
19 Feb ? 05:30:45 10° N 05:37:00 24° WNW 05:43:13 10° WSW visible
20 Feb ? 02:38:01 10° NE 02:44:43 27° E 02:48:05 21° SE visible
20 Feb ? 04:29:42 10° N 04:37:47 58° WNW 04:43:01 24° SW visible
21 Feb ? 03:29:47 10° NNE 03:38:00 62° ESE 03:42:10 32° S visible
21 Feb ? 05:23:36 10° N 05:30:09 27° WNW 05:36:42 10° WSW visible
22 Feb ? 02:31:21 10° NE 02:37:42 24° E 02:41:21 18° SE visible
22 Feb ? 04:22:42 10° N 04:30:53 64° WNW 04:36:16 24° SW visible
23 Feb ? 03:22:54 10° NNE 03:31:02 56° ESE 03:35:26 29° SSE visible
23 Feb ? 05:16:28 10° N 05:23:18 30° WNW 05:30:07 10° WSW visible
